• Join FlightAware (Why Join?)
  • Login
  • US Flag 
04:08AM EST


 

Airport Tracker/Info


-or-


 

Live Flight TrackerFlight Track Log ✈ ASH3770 ✈ 27-Jun-2013 ✈ KORD - KBDL

Flight Track Log - Related Links

Times and Time Zones

All times are in EDT time to prevent confusion due to time zone crossing. See the ASH3770 flight status page for this flight to view local times or setup timezone preferences in your user account.

Time Position Orientation Groundspeed Altitude Reporting Facility
EDT Latitude Longitude Course Direction KTS MPH feet Rate Location/Type
10:30PM 41.9667 -87.8667 99° East 193 222 2,000  Level Chicago TRACON
10:31PM 41.9572 -87.7828 99° East 224 258 3,800 1,513 Climbing Chicago Center
10:32PM 41.9439 -87.6914 101° East 240 276 5,000 1,659 Climbing Chicago Center
10:33PM 41.9286 -87.5806 100° East 289 333 7,200 2,293 Climbing Chicago Center
10:34PM 41.9697 -87.4889 59° Northeast 292 336 9,700 2,244 Climbing Chicago Center
10:35PM 42.0219 -87.4033 51° Northeast 296 341 11,800 2,000 Climbing Chicago Center
10:36PM 42.0586 -87.2942 66° East 323 372 13,800 1,984 Climbing Chicago Center
10:37PM 42.0517 -87.1644 94° East 348 400 15,900 2,000 Climbing Chicago Center
10:38PM 42.0478 -87.0011 92° East 363 418 17,900 1,854 Climbing Chicago Center
10:39PM 42.0422 -86.8603 93° East 376 433 19,700 1,073 Climbing Chicago Center
10:40PM 42.0300 -86.7075 96° East 406 467 20,100 732 Climbing Chicago Center
10:41PM 42.0181 -86.5300 95° East 441 507 21,200 1,220 Climbing Chicago Center
10:42PM 42.0061 -86.3597 95° East 455 524 22,600 1,317 Climbing Chicago Center
10:43PM 41.9933 -86.1861 96° East 463 533 23,900 1,161 Climbing Chicago Center
10:44PM 41.9808 -86.0119 95° East 467 537 25,000 1,024 Climbing Chicago Center
10:45PM 41.9672 -85.8333 96° East 476 548 26,000 878 Climbing Chicago Center
10:46PM 41.9581 -85.6519 94° East 490 564 26,800 829 Climbing Chicago Center
10:47PM 41.9697 -85.4706 85° East 483 556 27,700 829 Climbing Chicago Center
10:48PM 41.9817 -85.2861 85° East 489 563 28,500 726 Climbing Chicago Center
10:49PM 41.9931 -85.0864 86° East 502 578 29,200 780 Climbing Chicago Center
10:50PM 42.0047 -84.8983 85° East 507 583 30,100 829 Climbing Chicago Center
10:51PM 42.0144 -84.7122 86° East 504 580 30,900 1,122 Climbing Chicago Center
10:52PM 42.0272 -84.4881 86° East 503 579 32,400 1,525 Climbing Chicago Center
10:53PM 42.0381 -84.3439 84° East 492 566 33,900 821 Climbing Cleveland Center
10:54PM 42.0422 -84.1483 88° East 478 550 34,000 50 Climbing Cleveland Center
10:55PM 42.0497 -83.9642 87° East 478 550 34,000  Level Cleveland Center
10:56PM 42.0589 -83.7911 86° East 494 568 34,000  Level Cleveland Center
10:57PM 42.0661 -83.6011 87° East 499 574 34,000  Level Cleveland Center
10:58PM 42.0778 -83.3892 86° East 504 580 34,000  Level Cleveland Center
10:59PM 42.0672 -83.2236 95° East 510 587 34,000  Level Cleveland Center
11:00PM 42.0569 -83.0303 94° East 510 587 34,000  Level Cleveland Center
11:01PM 42.0481 -82.8453 94° East 505 581 34,000  Level Cleveland Center
11:02PM 42.0350 -82.6547 95° East 505 581 34,000  Level Cleveland Center
11:03PM 42.0236 -82.4642 95° East 500 575 34,000 350 Level Cleveland Center
11:04PM 42.0119 -82.2794 95° East 500 575 34,700 1,050 Climbing Cleveland Center
11:05PM 42.0103 -82.1006 91° East 488 562 36,100 1,150 Climbing Cleveland Center
11:06PM 42.0167 -81.9247 87° East 469 540 37,000 450 Climbing Cleveland Center
11:07PM 42.0356 -81.7322 82° East 469 540 37,000  Level Cleveland Center
11:08PM 42.0517 -81.5533 83° East 474 545 37,000  Level Cleveland Center
11:09PM 42.0678 -81.3692 83° East 482 555 37,000  Level Cleveland Center
11:10PM 42.0856 -81.1847 83° East 487 560 37,000  Level Cleveland Center
11:11PM 42.1008 -80.9972 84° East 499 574 37,000  Level Cleveland Center
11:12PM 42.1181 -80.8128 83° East 499 574 37,000  Level Cleveland Center
11:13PM 42.1331 -80.6308 84° East 494 568 37,000  Level Cleveland Center
11:14PM 42.1475 -80.4711 83° East 486 559 37,000  Level Cleveland Center
11:15PM 42.1639 -80.2947 83° East 480 552 37,000  Level Cleveland Center
11:16PM 42.1778 -80.1181 84° East 473 544 37,000  Level Cleveland Center
11:17PM 42.1897 -79.9469 85° East 465 535 37,000  Level Cleveland Center
11:18PM 42.2053 -79.7703 83° East 465 535 37,000  Level Cleveland Center
11:19PM 42.2183 -79.5992 84° East 465 535 37,000  Level Cleveland Center
11:20PM 42.2314 -79.4194 84° East 465 535 37,000  Level Cleveland Center
11:21PM 42.2461 -79.2397 84° East 470 541 37,000  Level Cleveland Center
11:22PM 42.2583 -79.0597 85° East 475 547 37,000  Level Cleveland Center
11:23PM 42.2722 -78.8603 85° East 475 547 37,000  Level Cleveland Center
11:24PM 42.2964 -78.6800 80° East 481 554 37,000  Level Cleveland Center
11:25PM 42.3353 -78.5075 73° East 476 548 37,000  Level Cleveland Center
11:26PM 42.3778 -78.3372 71° East 476 548 37,000  Level Cleveland Center
11:27PM 42.4181 -78.1644 72° East 476 548 37,000  Level Cleveland Center
11:28PM 42.4522 -78.0056 74° East 486 559 37,000  Level Cleveland Center
11:29PM 42.4958 -77.8178 72° East 481 554 37,000 -300 Level Cleveland Center
11:30PM 42.5039 -77.6400 86° East 476 548 36,400 -750 Descending Cleveland Center
11:32PM 42.5000 -77.3608 91° East 449 517 35,000 -528 Descending Boston Center
11:33PM 42.4986 -77.1972 91° East 434 499 35,000  Level Boston Center
11:34PM 42.4975 -77.0281 90° East 434 499 35,000  Level Boston Center
11:35PM 42.4956 -76.8617 91° East 440 506 35,000  Level Boston Center
11:36PM 42.4939 -76.6925 91° East 445 512 35,000  Level Boston Center
11:37PM 42.4936 -76.5292 90° East 440 506 35,000  Level Boston Center
11:38PM 42.4908 -76.3656 91° East 440 506 35,000 -655 Level Boston Center
11:39PM 42.4856 -76.2158 93° East 440 506 33,700 -1,664 Descending Boston Center
11:40PM 42.4847 -76.0469 90° East 440 506 31,700 -1,983 Descending Boston Center
11:41PM 42.4819 -75.8722 91° East 446 513 29,700 -2,000 Descending Boston Center
11:42PM 42.4769 -75.6917 92° East 457 526 27,700 -2,017 Descending Boston Center
11:43PM 42.4731 -75.5225 92° East 462 532 25,700 -1,983 Descending Boston Center
11:44PM 42.4694 -75.3533 92° East 457 526 23,700 -2,000 Descending Boston Center
11:45PM 42.4672 -75.1900 91° East 442 509 21,700 -2,000 Descending Boston Center
11:46PM 42.4728 -75.0356 87° East 429 494 19,700 -1,350 Descending Boston Center
11:47PM 42.4742 -74.8892 89° East 406 467 19,000 -353 Descending Boston Center
11:48PM 42.4753 -74.7258 89° East 392 451 19,000  Level Boston Center
11:49PM 42.4758 -74.5936 90° East 392 451 19,000  Level Boston Center
11:50PM 42.4808 -74.4306 88° East 387 445 19,000  Level Boston Center
11:51PM 42.4839 -74.2447 89° East 397 457 19,000  Level Boston Center
11:52PM 42.4861 -74.1039 89° East 408 470 19,000 -99 Level Boston Center
11:53PM 42.4886 -73.9350 89° East 408 470 18,800 -958 Descending Boston Center
11:54PM 42.4506 -73.8133 113° Southeast 379 436 17,100 -1,664 Descending Boston Center
11:55PM 42.3956 -73.6856 120° Southeast 364 419 15,500 -1,500 Descending Boston Center
11:56PM 42.3508 -73.5864 121° Southeast 346 398 14,100 -1,468 Descending Boston Center
11:56PM 42.3181 -73.5183 123° Southeast 325 374 13,200 -1,543 Descending Boston Center
11:57PM 42.2894 -73.4589 123° Southeast 316 364 12,300 -1,517 Descending Boston Center
11:58PM 42.2631 -73.3967 120° Southeast 312 359 11,000 -655 Descending Boston Center
11:59PM 42.2242 -73.3008 119° Southeast 266 306 11,100 -706 Climbing Boston Center
12:00AM 42.2039 -73.2053 106° East 259 298 9,600 -1,650 Descending Boston Center
12:01AM 42.1900 -73.1097 101° East 254 292 7,800 -1,748 Descending Boston Center
12:02AM 42.1719 -73.0058 103° East 256 295 5,900 -1,266 Descending Boston Center
12:03AM 42.1575 -72.9189 103° East 246 283 5,100 -393 Descending Boston Center
12:04AM 42.1433 -72.8319 102° East 239 275 5,100  Level Boston Center
12:05AM 42.1292 -72.7342 101° East 241 277 5,100 -283 Level Boston Center
12:06AM 42.1167 -72.6417 100° East 234 269 4,500 -915 Descending Boston Center
12:07AM 42.0981 -72.5744 110° East 226 260 3,300 -1,043 Descending Boston Center
12:08AM 42.0503 -72.5547 163° South 215 247 2,500 -689 Descending Boston Center
12:09AM 42.0086 -72.5967 217° Southwest 179 206 1,900 -694 Descending Boston Center
12:10AM 41.9750 -72.6383 223° Southwest 155 178 1,100 -800 Descending Boston Center
12:12AM 41.9333 -72.6833 210° Southwest  Level FlightAware Approximate
12:19AM 41.9392 -72.6834 210° Southwest  Level Estimated
12:20AM 41.9333 -72.6833 210° Southwest  Level FlightAware Approximate